"Pseudo-MPEC" for A10dEHr

Created 2019 May 21 9:07:02 UT using Find_Orb

Click here for an explanation of pseudo-MPECs

 
 Astrometry: 
     A10dEHr  C2019 05 14.54253520 23 52.92 -31 36 37.3    ~5EL7 18.73oVNEOCPT05
     A10dEHr  C2019 05 14.54627720 23 52.39 -31 36 36.4    ~5EL7 18.67oVNEOCPT05
     A10dEHr  C2019 05 14.55140420 23 51.70 -31 36 34.2    ~5EL7 18.79oVNEOCPT05
     A10dEHr  C2019 05 14.56152620 23 50.39 -31 36 31.9    ~5EL7 17.34oVNEOCPT05
     A10dEHr |C2019 05 15s:S`2+-$wiJ'FpcA[1wNor?CZOQy_ALyt31tjWvY\W%R@Fh,w!o[807
     A10dEHr |C2019 05 15x)dO]$p/#EviKJY\Gl$qqyr_+oUAstrometry`?j9/h_39Ij8yYc807
     A10dEHr |C2019 05 15JlEK^dO05((N3Q)NJsgM\/2o5`:5s#_@#dXA9hVvJ^cg7L:$Swh@807
     A10dEHr |C2019 05 15ljU,+DZb]eG2`;Up7%T[ul.6J;38[Y)7@h[PsT@@V[uMr![M\W?D807
     A10dEHr  C2019 05 15.44277120 21 53.40 -31 31 43.8    ~5FBM 18.5 GVNEOCPH01
     A10dEHr  C2019 05 15.44601620 21 52.95 -31 31 42.6    ~5FBM 18.5 GVNEOCPH01
     A10dEHr  C2019 05 15.45510520 21 51.71 -31 31 39.5    ~5FBM 18.4 GVNEOCPH01
     A10dEHr  C2019 05 15.46004720 21 51.04 -31 31 38.0    ~5FBM 18.6 GVNEOCPH01
     A10dEHr 1C2019 05 15mC`Z\u9?23-H3]AAS;bdw]7I8rvO)osvm3V)/JHu]/wKFFTZ.1F/Q62
     A10dEHr 1C2019 05 15Z^[13eZa;MNLV]vXY3gV8hO_vcm:Nm#.,^s?#TZ?'/E^FAp%.86GQ62
     A10dEHr KC2019 05 15?`\Sp0!Mr-eliab'J-?p(jPj(@7b9wu+4_`;1mWMoW41982/9k*YQ62
     A10dEHr KC2019 05 15\FrZdG?R`%mqLtOyi,hUys2iNh\?M;!sg5^h.6Ng*F9XumG[5V5oQ62
     A10dEHr KC2019 05 15*!_XiuQkRjXBN!*OrueZJ2\`G8O=BPVsQQ6B^ZUZ.Vd+6)[Vc_hEQ62
     A10dEHr 4C2019 05 16E6^t-Z$c[x:fh7$Hl^0H#6-9?hI)N8(M(@5!R6$FF][n)?$+v;9jW88
     A10dEHr KC2019 05 164[9qc+73tredacted;9HusT1R!hx^ImBBKM?@@cULe.Vu!IxPCRbI47
     A10dEHr 4C2019 05 16OSPMlSt4uFanf(WA^4H#v(Zq])o4HPU!Z)G3#[bIwWjYh1qV3tRTW88
     A10dEHr KC2019 05 16JS^?gdAq@wQ#DZZ'*18tDZ_;7s5iijmB(gdF.[@+gC*+$dfbO$6sI47
     A10dEHr KC2019 05 16_O4PI?kmghuT,vbgHT:R:rpZy+JrDy,tV/m!W4i,hu(Q=ySK9_e1I47
     A10dEHr  C2019 05 16.53117020 19 23.54 -31 25 34.6    ~5GIb 18.32oVNEOCPT08
     A10dEHr  C2019 05 16.53393420 19 23.42 -31 25 33.0    ~5GIb 18.06oVNEOCPT08
     A10dEHr  C2019 05 16.54041420 19 22.48 -31 25 31.8    ~5GIb 18.17oVNEOCPT08
     A10dEHr  C2019 05 16.55161920 19 20.91 -31 25 26.5    ~5GIb 17.92oVNEOCPT08
     A10dEHr  C2019 05 16UFE.+IOf#XuJZ,_#9'SA2p@eu3J;xYaCglFmuI3R'c;o;?.Cr*UBN55
     A10dEHr  C2019 05 16$uq8E26YM4Fs4nn]'F?j#4:rSHo%,%G1s#y+mXY'YRpM!S.!LSXaN55
     A10dEHr  C2019 05 16mQ:ot%ug%nj%]73?p?5wtB`vo9T0`_$/`x1etxEhB$BZo/yf)h=WN55
     A10dEHr  S2019 05 180WSYJbi0!n@;l+[@^cZ^_:So9sR[k/lclickH=%sYo)Z=#vccW*!C53
     A10dEHr  s2019 05 187m[ORv(!iVhere-KG==oZvh9kLM.)#rl4VG%#)T/Y]eH9rs:5j/IC53
     A10dEHr  S2019 05 18gx2$ju-GGT\#!aZ^pi=STfFM9`*IfKG\]%X3N%A0\BK[A,xN:NAXC53
     A10dEHr  s2019 05 18h8b8$g9:J?A],oMYyI^;*!).pG7kY%)uqab1g*CJ6lfcK?2/5qijC53
     A10dEHr  S2019 05 18R`!iR[H50@ws+y`5vd%h*hmJTV_K)%Rj[uvpw1qbSa9k]WpKb8r2C53
     A10dEHr  s2019 05 18GOKLOTR'xgVN7S:=Kq'dds!BC'*\yp]NA/#O;^(\:VsHp7sMbTkLC53
     A10dEHr  S2019 05 18MlHqM,-MDUwS3'Iq/+fe%h6p;=2foro.8wTaH\mU/JS!`Q(/#7oCC53
     A10dEHr  s2019 05 18WNeGDd0uLHrZ/@WO%'\D\COe,,V!)3)nZ'tx7JJ`v+oqG'a]KDT/C53
     A10dEHr  C2019 05 18faehexplanationjSq_gy3f67jP4OF_Q_Xhv]27uix:1Cm\\55IUN55
     A10dEHr  C2019 05 18aEVOOhZ]M8KJO7f2I?4bNqxc`Gfb=C7Fy%\-r-1GDk40oS7)oeTmN55
     A10dEHr  C2019 05 18(;:F'W=JndJNj`5cn0lkD#`QnDFYxma9baA?$kghoo3V*v$^`pP_N55
     A10dEHr KC2019 05 19Mj6A47T3^oF0Ge5mSWHjL-@Pk'!u@(fV$TGXA,(H,8or'%_Y')+4N55
     A10dEHr KC2019 05 19$6Z_7U%?A5wP]VqC8sOPi!X_qbT$vX:Vq+2v$-27I2cFJ\OKQ2e1N55
     A10dEHr KC2019 05 19)]s8aJJUB`l?T*AE--.-Wk]1phD[y'?M?Zwj6W2P$*o2ijWPw@^TN55

Station data:
(807) Cerro Tololo Observatory, La Serena  (S30.169136 W70.805900)  Chile.
(C53) NEOSSat.
(H01) Magdalena Ridge Observatory, Socorro  (N33.984833 W107.189333)  US/New
   Mexico.  Observers W. H. Ryan, E. V. Ryan. Measurer W. H. Ryan. 2.4-m
   f/8.9 reflector + CCD.
(I47) Pierre Auger Observatory, Malargüe  (S35.495442 W69.449700)  Argentina.
(N55) Corona Borealis Observatory, Ngari  (N32.326059 E80.026230)  China.
(Q62) iTelescope Observatory, Siding Spring  (S31.273289 E149.064420)
   Australia/NSW. 0.50-m f/6.8 astrograph + CCD + focal reducer, 0.70-m f/6.6
   astrograph + CCD.
(T05) ATLAS-HKO, Haleakala  (N20.707573 W156.257010)  US/Hawaii.  Observers
   L. Denneau, A. Heinze, H. Weiland, J. Tonry, H. Flewelling, A.
   Fitzsimmons, D. Young, B. Stalder. Measurers L. Denneau, A. Heinze, J.
   Tonry. 0.5-m f/2.0 Schmidt + CCD.
(T08) ATLAS-MLO, Mauna Loa  (N19.535772 W155.576400)  US/Hawaii.  Observers
   L. Denneau, A. Heinze, H. Weiland, J. Tonry, H. Flewelling, A.
   Fitzsimmons, D. Young, B. Stalder. Measurers L. Denneau, A. Heinze, J.
   Tonry. 0.5-m f/2.0 Schmidt + CCD.
(W88) Slooh.com Chile Observatory, La Dehesa  (S33.269128 W70.534300)  Chile.
   0.35-m f/11 Schmidt-Cassegrain + CCD.

Orbital elements:  A10dEHr
   Perihelion 2019 Aug 1.683515 +/- 0.77 TT = 16:24:15 (JD 2458697.183515)
Epoch 2019 May 19.0 TT = JDT 2458622.5                        AutoNEOCP
M 359.52957853 +/- 1.7              (J2000 ecliptic)
n   0.00629886 +/- 0.0173           Peri.   16.16204 +/- 0.6
a  29.0376273 +/- 86.8              Node   270.52444 +/- 0.019
e   0.9183860 +/- 0.164             Incl.  130.94143 +/- 0.9
P 156.47                   H 14.0   G  0.15   U 10.0  
q 2.36987676 +/- 0.0134    Q 55.7053780 +/- 63.9
From 39 observations 2019 May 14-19; mean residual 1".06
Residuals in arcseconds: 
190514 T05  .50+  .10-    190515 Q62  .04+  .46+    190516 N55  .68+  .28+    
190514 T05  .05+  .38-    190515 Q62  .07-  .05-    190516 N55  .29-  .38+    
190514 T05  .10-  .21+    190515 Q62  .59-  .02-    190516 N55  .13-  1.3+    
190514 T05  .27+  .67-    190515 Q62  .35-  .14+    190518 C53  3.0+  .15+    
190515 807  .11-  .16+    190516 W88  .31+  .12+    190518 C53  1.2+  .21-    
190515 807  .14-  .01+    190516 I47  .33+  .30+    190518 C53  .21-  .12+    
190515 807  .23-  .05-    190516 W88  .31-  .80+    190518 C53  .67+  .36+    
190515 807  .09-  .16-    190516 I47  .47+  .28+    190518 N55  2.5+  1.0+    
190515 H01  .15+  .01-    190516 I47  .42-  .40+    190518 N55  .91-  1.0-    
190515 H01  .06+  .13+    190516 T08  2.9-  1.3-    190518 N55  5.9-  2.9-    
190515 H01  .09+  .24+    190516 T08  .63+  .65-    190519 N55  .06-  .70-    
190515 H01  .16+  .11+    190516 T08  .39+  1.7-    190519 N55  .56+  .69+    
190515 Q62  .05-  .32+    190516 T08  .69+  .16-    190519 N55  .74-  1.4+    

Ephemerides (geocentric):
Date (UTC) HH   RA              Dec         delta   r     elong  mag " sig PA
---- -- -- --  -------------   -----------  ------ ------ -----  --- ---- ---
2019 05 21 09  20 07 02.882   -30 54 19.58  1.8052 2.4921 121.8 18.3 1.03   3
2019 05 21 10  20 06 55.965   -30 54 01.62  1.8043 2.4919 121.9 18.3 1.05   2
2019 05 21 11  20 06 49.038   -30 53 43.62  1.8034 2.4918 122.0 18.3 1.08   2
2019 05 21 12  20 06 42.101   -30 53 25.58  1.8025 2.4917 122.0 18.3 1.11   2
2019 05 21 13  20 06 35.155   -30 53 07.51  1.8016 2.4915 122.1 18.3 1.13   2
2019 05 21 14  20 06 28.200   -30 52 49.40  1.8008 2.4914 122.2 18.3 1.16   1
2019 05 21 15  20 06 21.235   -30 52 31.26  1.7999 2.4913 122.2 18.3 1.19   1
2019 05 21 16  20 06 14.260   -30 52 13.07  1.7990 2.4911 122.3 18.3 1.21   1
2019 05 21 17  20 06 07.275   -30 51 54.86  1.7981 2.4910 122.3 18.3 1.24   1
2019 05 21 18  20 06 00.281   -30 51 36.60  1.7972 2.4909 122.4 18.3 1.27   0
2019 05 21 19  20 05 53.278   -30 51 18.31  1.7963 2.4907 122.5 18.3 1.30   0
2019 05 21 20  20 05 46.265   -30 50 59.98  1.7955 2.4906 122.5 18.3 1.32   0
2019 05 21 21  20 05 39.242   -30 50 41.61  1.7946 2.4904 122.6 18.3 1.35   0
2019 05 21 22  20 05 32.209   -30 50 23.21  1.7937 2.4903 122.7 18.3 1.38 179
2019 05 21 23  20 05 25.167   -30 50 04.77  1.7928 2.4902 122.7 18.3 1.41 179
2019 05 22 00  20 05 18.116   -30 49 46.29  1.7920 2.4900 122.8 18.3 1.44 179
2019 05 22 01  20 05 11.054   -30 49 27.77  1.7911 2.4899 122.9 18.3 1.47 179
2019 05 22 02  20 05 03.983   -30 49 09.22  1.7902 2.4898 122.9 18.3 1.50 179
2019 05 22 03  20 04 56.903   -30 48 50.62  1.7893 2.4896 123.0 18.3 1.53 178
2019 05 22 04  20 04 49.812   -30 48 31.99  1.7885 2.4895 123.1 18.3 1.56 178
2019 05 22 05  20 04 42.713   -30 48 13.33  1.7876 2.4894 123.1 18.3 1.60 178
2019 05 22 06  20 04 35.603   -30 47 54.62  1.7867 2.4892 123.2 18.3 1.63 178
2019 05 22 07  20 04 28.484   -30 47 35.87  1.7858 2.4891 123.2 18.3 1.66 178
2019 05 22 08  20 04 21.355   -30 47 17.09  1.7850 2.4890 123.3 18.3 1.69 177
2019 05 22 09  20 04 14.216   -30 46 58.27  1.7841 2.4888 123.4 18.3 1.72 177
2019 05 22 10  20 04 07.068   -30 46 39.41  1.7832 2.4887 123.4 18.3 1.76 177
2019 05 22 11  20 03 59.910   -30 46 20.51  1.7824 2.4886 123.5 18.3 1.79 177
2019 05 22 12  20 03 52.742   -30 46 01.57  1.7815 2.4884 123.6 18.3 1.82 176
2019 05 22 13  20 03 45.565   -30 45 42.59  1.7806 2.4883 123.6 18.3 1.86 176
2019 05 22 14  20 03 38.378   -30 45 23.57  1.7797 2.4882 123.7 18.3 1.89 176
2019 05 22 15  20 03 31.181   -30 45 04.52  1.7789 2.4880 123.8 18.3 1.93 176
2019 05 22 16  20 03 23.975   -30 44 45.42  1.7780 2.4879 123.8 18.3 1.96 176
2019 05 22 17  20 03 16.758   -30 44 26.29  1.7771 2.4878 123.9 18.3 2.00 175
2019 05 22 18  20 03 09.533   -30 44 07.11  1.7763 2.4876 123.9 18.3 2.03 175
2019 05 22 19  20 03 02.297   -30 43 47.90  1.7754 2.4875 124.0 18.3 2.07 175
2019 05 22 20  20 02 55.052   -30 43 28.64  1.7745 2.4874 124.1 18.3 2.11 175
2019 05 22 21  20 02 47.796   -30 43 09.35  1.7737 2.4872 124.1 18.3 2.14 175
2019 05 22 22  20 02 40.532   -30 42 50.01  1.7728 2.4871 124.2 18.3 2.18 174
2019 05 22 23  20 02 33.257   -30 42 30.64  1.7720 2.4870 124.3 18.3 2.22 174
2019 05 23 00  20 02 25.973   -30 42 11.22  1.7711 2.4868 124.3 18.3 2.25 174
2019 05 23 01  20 02 18.679   -30 41 51.77  1.7702 2.4867 124.4 18.3 2.29 174
2019 05 23 02  20 02 11.375   -30 41 32.27  1.7694 2.4866 124.5 18.2 2.33 174
2019 05 23 03  20 02 04.061   -30 41 12.74  1.7685 2.4864 124.5 18.2 2.37 173
2019 05 23 04  20 01 56.738   -30 40 53.16  1.7676 2.4863 124.6 18.2 2.41 173
2019 05 23 05  20 01 49.405   -30 40 33.54  1.7668 2.4862 124.7 18.2 2.45 173
2019 05 23 06  20 01 42.062   -30 40 13.88  1.7659 2.4860 124.7 18.2 2.49 173
2019 05 23 07  20 01 34.709   -30 39 54.18  1.7651 2.4859 124.8 18.2 2.53 173
2019 05 23 08  20 01 27.347   -30 39 34.44  1.7642 2.4858 124.9 18.2 2.57 172